Time,TemperatureF,DewpointF,PressureIn,WindDirection,WindDirectionDegrees,WindSpeedMPH,WindSpeedGustMPH,Humidity,HourlyPrecipIn,Conditions,Clouds,dailyrainin,SolarRadiationWatts/m^2,SoftwareType,DateUTC
2013-08-30 00:12:00,60.0,52.0,-100.00,West,268,0.0,4.0,76,0.00,,,0.29,0.000000,,2013-08-30 07:12:00,
2013-08-30 00:21:00,60.0,52.0,-100.00,West,268,0.0,4.0,76,0.00,,,0.29,0.000000,,2013-08-30 07:21:00,
2013-08-30 00:31:00,60.0,52.0,-100.00,West,268,0.0,4.0,76,0.00,,,0.29,0.000000,,2013-08-30 07:31:00,
2013-08-30 01:11:00,60.0,52.0,-100.00,SSE,168,0.0,0.0,75,0.00,,,0.29,0.000000,,2013-08-30 08:11:00,
2013-08-30 01:22:00,60.0,52.0,-100.00,SSE,168,0.0,0.0,75,0.00,,,0.29,0.000000,,2013-08-30 08:22:00,
2013-08-30 01:32:00,60.0,52.0,-100.00,SSE,168,0.0,0.0,75,0.00,,,0.29,0.000000,,2013-08-30 08:32:00,
2013-08-30 02:12:00,60.0,50.0,-100.00,NNE,32,0.0,0.0,69,0.00,,,0.29,0.000000,,2013-08-30 09:12:00,
2013-08-30 02:22:00,60.0,50.0,-100.00,NNE,32,0.0,0.0,69,0.00,,,0.29,0.000000,,2013-08-30 09:22:00,
2013-08-30 02:33:00,60.0,50.0,-100.00,NNE,32,0.0,0.0,69,0.00,,,0.29,0.000000,,2013-08-30 09:33:00,
2013-08-30 03:12:00,58.0,51.0,-100.00,SE,143,1.0,5.0,78,0.02,,,0.31,0.000000,,2013-08-30 10:12:00,
2013-08-30 03:23:00,58.0,51.0,-100.00,SE,143,1.0,5.0,78,0.02,,,0.31,0.000000,,2013-08-30 10:23:00,
2013-08-30 03:32:00,58.0,51.0,-100.00,SE,143,1.0,5.0,78,0.02,,,0.31,0.000000,,2013-08-30 10:32:00,
2013-08-30 04:12:00,58.0,50.0,-100.00,SW,223,1.0,3.0,75,0.01,,,0.32,0.000000,,2013-08-30 11:12:00,
2013-08-30 04:22:00,58.0,50.0,-100.00,SW,223,1.0,3.0,75,0.01,,,0.32,0.000000,,2013-08-30 11:22:00,
2013-08-30 04:32:00,58.0,50.0,-100.00,SW,223,1.0,3.0,75,0.01,,,0.32,0.000000,,2013-08-30 11:32:00,
2013-08-30 05:12:00,58.0,50.0,-100.00,West,261,1.0,3.0,76,0.00,,,0.32,0.000000,,2013-08-30 12:12:00,
2013-08-30 05:21:00,58.0,50.0,-100.00,West,261,1.0,3.0,76,0.00,,,0.32,0.000000,,2013-08-30 12:21:00,
2013-08-30 05:32:00,58.0,50.0,-100.00,West,261,1.0,3.0,76,0.00,,,0.32,0.000000,,2013-08-30 12:32:00,
2013-08-30 06:11:00,58.0,50.0,-100.00,West,260,0.0,2.0,74,0.00,,,0.31,0.000000,,2013-08-30 13:11:00,
2013-08-30 06:21:00,58.0,50.0,-100.00,West,260,0.0,2.0,74,0.00,,,0.31,0.000000,,2013-08-30 13:21:00,
2013-08-30 06:32:00,58.0,50.0,-100.00,West,260,0.0,2.0,74,0.00,,,0.31,0.000000,,2013-08-30 13:32:00,
2013-08-30 07:11:00,60.0,50.0,-100.00,ENE,58,1.0,3.0,69,0.00,,,0.30,16.000000,,2013-08-30 14:11:00,
2013-08-30 07:21:00,60.0,50.0,-100.00,ENE,58,1.0,3.0,69,0.00,,,0.30,16.000000,,2013-08-30 14:21:00,
2013-08-30 07:31:00,60.0,50.0,-100.00,ENE,58,1.0,3.0,69,0.00,,,0.30,16.000000,,2013-08-30 14:31:00,
2013-08-30 08:11:00,62.0,52.0,-100.00,NE,49,0.0,3.0,69,0.00,,,0.30,111.000000,,2013-08-30 15:11:00,
2013-08-30 08:22:00,62.0,52.0,-100.00,NE,49,0.0,3.0,69,0.00,,,0.30,111.000000,,2013-08-30 15:22:00,
2013-08-30 08:33:00,62.0,52.0,-100.00,NE,49,0.0,3.0,69,0.00,,,0.30,111.000000,,2013-08-30 15:33:00,
2013-08-30 09:13:00,65.0,55.0,-100.00,North,4,0.0,0.0,71,0.00,,,0.25,168.000000,,2013-08-30 16:13:00,
2013-08-30 09:24:00,65.0,55.0,-100.00,North,4,0.0,0.0,71,0.00,,,0.25,168.000000,,2013-08-30 16:24:00,
2013-08-30 09:33:00,65.0,55.0,-100.00,North,4,0.0,0.0,71,0.00,,,0.25,168.000000,,2013-08-30 16:33:00,
2013-08-30 10:13:00,69.0,54.0,-100.00,WSW,248,1.0,3.0,59,0.00,,,0.14,340.000000,,2013-08-30 17:13:00,
2013-08-30 10:23:00,69.0,54.0,-100.00,WSW,248,1.0,3.0,59,0.00,,,0.14,340.000000,,2013-08-30 17:23:00,
2013-08-30 10:34:00,69.0,54.0,-100.00,WSW,248,1.0,3.0,59,0.00,,,0.14,340.000000,,2013-08-30 17:34:00,
2013-08-30 11:12:00,72.0,57.0,-100.00,SSW,193,1.0,3.0,60,0.00,,,0.03,470.000000,,2013-08-30 18:12:00,
2013-08-30 11:21:00,72.0,57.0,-100.00,SSW,193,1.0,3.0,60,0.00,,,0.03,470.000000,,2013-08-30 18:21:00,
2013-08-30 11:32:00,72.0,57.0,-100.00,SSW,193,1.0,3.0,60,0.00,,,0.03,470.000000,,2013-08-30 18:32:00,
2013-08-30 12:12:00,68.0,59.0,-100.00,South,183,2.0,6.0,72,0.00,,,0.03,505.000000,,2013-08-30 19:12:00,
2013-08-30 12:21:00,68.0,59.0,-100.00,South,183,2.0,6.0,72,0.00,,,0.03,505.000000,,2013-08-30 19:21:00,
2013-08-30 12:32:00,68.0,59.0,-100.00,South,183,2.0,6.0,72,0.00,,,0.03,505.000000,,2013-08-30 19:32:00,
2013-08-30 13:11:00,71.0,63.0,-100.00,South,184,3.0,6.0,75,0.00,,,0.03,536.000000,,2013-08-30 20:11:00,
2013-08-30 13:22:00,71.0,63.0,-100.00,South,184,3.0,6.0,75,0.00,,,0.03,536.000000,,2013-08-30 20:22:00,
2013-08-30 13:32:00,71.0,63.0,-100.00,South,184,3.0,6.0,75,0.00,,,0.03,536.000000,,2013-08-30 20:32:00,
2013-08-30 14:11:00,65.0,60.0,-100.00,SSE,156,2.0,5.0,85,0.00,,,0.03,249.000000,,2013-08-30 21:11:00,
2013-08-30 14:21:00,65.0,60.0,-100.00,SSE,156,2.0,5.0,85,0.00,,,0.03,249.000000,,2013-08-30 21:21:00,
2013-08-30 14:34:00,65.0,60.0,-100.00,SSE,156,2.0,5.0,85,0.00,,,0.03,249.000000,,2013-08-30 21:34:00,
2013-08-30 15:13:00,65.0,60.0,-100.00,SSE,158,3.0,6.0,84,0.00,,,0.03,231.000000,,2013-08-30 22:13:00,
2013-08-30 15:24:00,65.0,60.0,-100.00,SSE,158,3.0,6.0,84,0.00,,,0.03,231.000000,,2013-08-30 22:24:00,
2013-08-30 15:33:00,65.0,60.0,-100.00,SSE,158,3.0,6.0,84,0.00,,,0.03,231.000000,,2013-08-30 22:33:00,
2013-08-30 16:12:00,62.0,58.0,-100.00,NW,316,4.0,9.0,86,0.02,,,-99.99,128.000000,,2013-08-30 23:12:00,
2013-08-30 16:22:00,62.0,58.0,-100.00,NW,316,4.0,9.0,86,0.02,,,-99.99,128.000000,,2013-08-30 23:22:00,
2013-08-30 16:33:00,62.0,58.0,-100.00,NW,316,4.0,9.0,86,0.02,,,-99.99,128.000000,,2013-08-30 23:33:00,
2013-08-30 17:11:00,60.0,56.0,-100.00,SW,235,0.0,4.0,86,0.03,,,0.08,43.000000,,2013-08-31 00:11:00,
2013-08-30 17:21:00,60.0,56.0,-100.00,SW,235,0.0,4.0,86,0.03,,,0.08,43.000000,,2013-08-31 00:21:00,
2013-08-30 17:32:00,60.0,56.0,-100.00,SW,235,0.0,4.0,86,0.03,,,0.08,43.000000,,2013-08-31 00:32:00,
2013-08-30 18:11:00,60.0,53.0,-100.00,West,281,3.0,5.0,77,0.01,,,-99.99,50.000000,,2013-08-31 01:11:00,
2013-08-30 18:21:00,60.0,53.0,-100.00,West,281,3.0,5.0,77,0.01,,,-99.99,50.000000,,2013-08-31 01:21:00,
2013-08-30 18:32:00,60.0,53.0,-100.00,West,281,3.0,5.0,77,0.01,,,-99.99,50.000000,,2013-08-31 01:32:00,
2013-08-30 19:12:00,61.0,52.0,-100.00,West,268,5.0,11.0,71,0.00,,,0.09,45.000000,,2013-08-31 02:12:00,
2013-08-30 19:22:00,61.0,52.0,-100.00,West,268,5.0,11.0,71,0.00,,,0.09,45.000000,,2013-08-31 02:22:00,
2013-08-30 19:32:00,61.0,52.0,-100.00,West,268,5.0,11.0,71,0.00,,,0.09,45.000000,,2013-08-31 02:32:00,
2013-08-30 20:12:00,61.0,50.0,-100.00,West,261,4.0,12.0,66,0.00,,,0.09,3.000000,,2013-08-31 03:12:00,
2013-08-30 20:22:00,61.0,50.0,-100.00,West,261,4.0,12.0,66,0.00,,,0.09,3.000000,,2013-08-31 03:22:00,
2013-08-30 20:34:00,61.0,50.0,-100.00,West,261,4.0,12.0,66,0.00,,,0.09,3.000000,,2013-08-31 03:34:00,
2013-08-30 21:14:00,61.0,51.0,-100.00,WNW,284,5.0,11.0,69,0.00,,,-99.99,0.000000,,2013-08-31 04:14:00,
2013-08-30 21:24:00,61.0,51.0,-100.00,WNW,284,5.0,11.0,69,0.00,,,-99.99,0.000000,,2013-08-31 04:24:00,
2013-08-30 21:34:00,61.0,51.0,-100.00,WNW,284,5.0,11.0,69,0.00,,,-99.99,0.000000,,2013-08-31 04:34:00,
2013-08-30 22:13:00,61.0,51.0,-100.00,North,3,6.0,12.0,69,0.00,,,0.09,0.000000,,2013-08-31 05:13:00,
2013-08-30 22:23:00,61.0,51.0,-100.00,North,3,6.0,12.0,69,0.00,,,0.09,0.000000,,2013-08-31 05:23:00,
2013-08-30 22:34:00,61.0,51.0,-100.00,North,3,6.0,12.0,69,0.00,,,0.09,0.000000,,2013-08-31 05:34:00,
2013-08-30 23:12:00,62.0,49.0,-100.00,NNW,328,4.0,9.0,62,0.00,,,0.09,0.000000,,2013-08-31 06:12:00,
2013-08-30 23:22:00,62.0,49.0,-100.00,NNW,328,4.0,9.0,62,0.00,,,0.09,0.000000,,2013-08-31 06:22:00,
2013-08-30 23:32:00,62.0,49.0,-100.00,NNW,328,4.0,9.0,62,0.00,,,0.09,0.000000,,2013-08-31 06:32:00,